Soldotna, AK

2:53 AM AKDT on June 24, 2017 (GMT -0800)
Soldotna

Weather History for PASX - December, 2012

Change the Weather History Date:

Friday, December 14, 2012

  Actual Average Record
Temperature  
Mean Temperature 16 °F -  
Max Temperature 23 °F 22 °F 40 °F (1982)
Min Temperature 8 °F 7 °F -32 °F (1964)
Degree Days  
Heating Degree Days 50    
Moisture  
Dew Point 16 °F    
Average Humidity 93    
Maximum Humidity 100    
Minimum Humidity 85    
Precipitation  
Precipitation 0.00 in - - ()
Sea Level Pressure  
Sea Level Pressure 29.22 in    
Wind  
Wind Speed 2 mph (East)    
Max Wind Speed 7 mph    
Max Gust Speed -    
Visibility 6 miles    
Events      
Averages and records for this station are not official NWS values.
T = Trace of Precipitation, MM = Missing Value Source: NWS Daily Summary

Daily Weather History Graph

Daily Weather History Graph

Search for Another Location

Airport or City:

Trip Planner

Search our weather history database for the weather conditions in past years. The results will help you decide how hot, cold, wet, or windy it might be!

Date:

Astronomy

Dec. 14, 2012 Rise Set
Actual Time 10:05 AM AKST 3:52 PM AKST
Civil Twilight 9:06 AM AKST 4:51 PM AKST
Nautical Twilight 8:08 AM AKST 5:49 PM AKST
Astronomical Twilight 7:16 AM AKST 6:41 PM AKST
Moon 10:58 AM AKST (12/14) 6:22 PM AKST (12/14)
Length of Visible Light 7h 44m
Length of Day
5h 46m
Waxing Crescent, 3% of the Moon is Illuminated
Dec 14
Waxing Crescent
Dec 19
First Quarter
Dec 28
Full
Jan 4
Last Quarter
Jan 11
New

Hourly Weather History & Observations

Time (AKST) Temp. Windchill Dew Point Humidity Pressure Visibility Wind Dir Wind Speed Gust Speed Precip Events Conditions
12:16 AM 23.0 °F - 19.4 °F 86% 29.27 in 10.0 mi Calm Calm - N/A   Clear
12:36 AM 21.2 °F 16.4 °F 19.4 °F 93% 29.27 in 10.0 mi East 3.5 mph - N/A   Clear
12:56 AM 19.4 °F - 15.8 °F 86% 29.27 in 10.0 mi Calm Calm - N/A   Clear
1:16 AM 19.4 °F - 17.6 °F 93% 29.27 in 9.0 mi Calm Calm - N/A   Partly Cloudy
1:36 AM 17.6 °F - 17.6 °F 100% 29.27 in 6.0 mi Calm Calm - N/A   Mostly Cloudy
1:56 AM 17.6 °F - 15.8 °F 93% 29.27 in 10.0 mi Calm Calm - N/A   Overcast
2:16 AM 17.6 °F - 15.8 °F 93% 29.27 in 10.0 mi Calm Calm - N/A   Overcast
2:36 AM 17.6 °F - 17.6 °F 100% 29.27 in 10.0 mi Calm Calm - N/A   Mostly Cloudy
2:56 AM 17.6 °F - 15.8 °F 93% 29.27 in 10.0 mi Calm Calm - N/A   Overcast
3:16 AM 14.0 °F - 10.4 °F 86% 29.27 in 10.0 mi Calm Calm - N/A   Mostly Cloudy
3:36 AM 12.2 °F 6.1 °F 10.4 °F 92% 29.27 in 10.0 mi ENE 3.5 mph - N/A   Partly Cloudy
3:56 AM 12.2 °F 6.1 °F 12.2 °F 100% 29.26 in 10.0 mi NE 3.5 mph - N/A   Clear
4:16 AM 12.2 °F 6.1 °F 8.6 °F 85% 29.26 in 10.0 mi East 3.5 mph - N/A   Partly Cloudy
4:36 AM 12.2 °F 4.3 °F 12.2 °F 100% 29.26 in 10.0 mi ENE 4.6 mph - N/A   Clear
4:56 AM 10.4 °F - 6.8 °F 85% 29.26 in 10.0 mi Calm Calm - N/A   Mostly Cloudy
5:16 AM 10.4 °F - 6.8 °F 85% 29.26 in 10.0 mi Calm Calm - N/A   Overcast
5:36 AM 8.6 °F - 5.0 °F 85% 29.26 in 10.0 mi Calm Calm - N/A   Overcast
5:56 AM 12.2 °F 4.3 °F 10.4 °F 92% 29.26 in 10.0 mi East 4.6 mph - N/A   Overcast
6:16 AM 12.2 °F 4.3 °F 8.6 °F 85% 29.25 in 10.0 mi ESE 4.6 mph - N/A   Overcast
6:36 AM 15.8 °F 6.1 °F 12.2 °F 86% 29.25 in 1.0 mi ESE 6.9 mph - N/A   Overcast
6:56 AM 15.8 °F 8.6 °F 12.2 °F 86% 29.25 in 0.5 mi ESE 4.6 mph - N/A   Overcast
7:16 AM 15.8 °F 6.1 °F 14.0 °F 93% 29.25 in 0.8 mi ESE 6.9 mph - N/A   Overcast
7:36 AM 15.8 °F 8.6 °F 14.0 °F 93% 29.25 in 2.5 mi ESE 4.6 mph - N/A   Overcast
7:56 AM 15.8 °F 8.6 °F 12.2 °F 86% 29.24 in 1.0 mi ESE 4.6 mph - N/A   Overcast
8:16 AM 15.8 °F 10.2 °F 14.0 °F 93% 29.24 in 0.8 mi ESE 3.5 mph - N/A   Overcast
8:36 AM 15.8 °F 10.2 °F 15.8 °F 100% 29.24 in 0.5 mi ESE 3.5 mph - N/A   Overcast
8:56 AM 15.8 °F 8.6 °F 14.0 °F 93% 29.24 in 1.2 mi ESE 4.6 mph - N/A   Overcast
9:16 AM 15.8 °F 8.6 °F 14.0 °F 93% 29.24 in 0.5 mi ESE 4.6 mph - N/A   Overcast
9:36 AM 15.8 °F 7.2 °F 14.0 °F 93% 29.24 in 0.2 mi East 5.8 mph - N/A   Overcast
9:56 AM 15.8 °F 8.6 °F 15.8 °F 100% 29.24 in 0.2 mi East 4.6 mph - N/A   Overcast
10:16 AM 17.6 °F 10.7 °F 15.8 °F 93% 29.24 in 0.2 mi East 4.6 mph - N/A   Overcast
10:36 AM 17.6 °F 10.7 °F 15.8 °F 93% 29.24 in 0.2 mi East 4.6 mph - N/A   Overcast
10:56 AM 17.6 °F 12.3 °F 15.8 °F 93% 29.24 in 0.2 mi East 3.5 mph - N/A   Overcast
11:16 AM 17.6 °F 10.7 °F 15.8 °F 93% 29.23 in 0.2 mi ESE 4.6 mph - N/A   Overcast
11:36 AM 17.6 °F 12.3 °F 15.8 °F 93% 29.23 in 0.2 mi East 3.5 mph - N/A   Overcast
11:56 AM 17.6 °F 12.3 °F 15.8 °F 93% 29.23 in 0.2 mi East 3.5 mph - N/A   Overcast
12:16 PM 17.6 °F 12.3 °F 15.8 °F 93% 29.23 in 0.5 mi East 3.5 mph - N/A   Overcast
12:36 PM 17.6 °F 12.3 °F 15.8 °F 93% 29.22 in 1.0 mi East 3.5 mph - N/A   Overcast
12:56 PM 17.6 °F - 17.6 °F 100% 29.22 in 1.0 mi Calm Calm - N/A   Overcast
1:16 PM 17.6 °F - 15.8 °F 93% 29.22 in 0.5 mi Calm Calm - N/A   Overcast
1:36 PM 17.6 °F - 17.6 °F 100% 29.22 in 0.5 mi Calm Calm - N/A   Overcast
1:56 PM 17.6 °F - 17.6 °F 100% 29.22 in 0.8 mi Calm Calm - N/A   Overcast
2:16 PM 17.6 °F - 17.6 °F 100% 29.21 in 0.8 mi Calm Calm - N/A   Overcast
2:36 PM 19.4 °F - 17.6 °F 93% 29.21 in 0.2 mi Calm Calm - N/A   Overcast
2:56 PM 19.4 °F 14.3 °F 17.6 °F 93% 29.20 in 0.5 mi East 3.5 mph - N/A   Overcast
3:16 PM 19.4 °F - 17.6 °F 93% 29.20 in 1.2 mi Calm Calm - N/A   Overcast
3:36 PM 19.4 °F - 17.6 °F 93% 29.20 in 2.0 mi Calm Calm - N/A   Overcast
3:56 PM 19.4 °F - 17.6 °F 93% 29.20 in 3.0 mi Calm Calm - N/A   Overcast
4:16 PM 19.4 °F - 17.6 °F 93% 29.20 in 5.0 mi Calm Calm - N/A   Overcast
4:36 PM 19.4 °F - 17.6 °F 93% 29.20 in 6.0 mi Calm Calm - N/A   Overcast
4:56 PM 19.4 °F - 17.6 °F 93% 29.19 in 7.0 mi Calm Calm - N/A   Overcast
5:16 PM 19.4 °F - 17.6 °F 93% 29.19 in 7.0 mi Calm Calm - N/A   Overcast
5:36 PM 19.4 °F - 17.6 °F 93% 29.19 in 9.0 mi Calm Calm - N/A   Overcast
5:56 PM 19.4 °F - 17.6 °F 93% 29.19 in 10.0 mi Calm Calm - N/A   Overcast
6:16 PM 19.4 °F - 17.6 °F 93% 29.19 in 10.0 mi Calm Calm - N/A   Overcast
6:36 PM 19.4 °F - 17.6 °F 93% 29.18 in 6.0 mi Calm Calm - N/A   Overcast
6:56 PM 19.4 °F - 17.6 °F 93% 29.18 in 9.0 mi Calm Calm - N/A   Overcast
7:16 PM 19.4 °F - 17.6 °F 93% 29.17 in 10.0 mi Calm Calm - N/A   Overcast
7:36 PM 19.4 °F - 17.6 °F 93% 29.17 in 10.0 mi Calm Calm - N/A   Overcast
7:56 PM 19.4 °F - 17.6 °F 93% 29.17 in 10.0 mi Calm Calm - N/A   Overcast
8:16 PM 17.6 °F - 17.6 °F 100% 29.17 in 10.0 mi Calm Calm - N/A   Overcast
8:36 PM 17.6 °F - 17.6 °F 100% 29.17 in 10.0 mi Calm Calm - N/A   Overcast
8:56 PM 19.4 °F - 17.6 °F 93% 29.17 in 10.0 mi Calm Calm - N/A   Overcast
9:16 PM 19.4 °F - 17.6 °F 93% 29.17 in 10.0 mi Calm Calm - N/A   Overcast
9:36 PM 19.4 °F - 17.6 °F 93% 29.16 in 10.0 mi Calm Calm - N/A   Overcast
9:56 PM 19.4 °F 14.3 °F 17.6 °F 93% 29.16 in 10.0 mi West 3.5 mph - N/A   Overcast
10:16 PM 19.4 °F 14.3 °F 17.6 °F 93% 29.16 in 10.0 mi West 3.5 mph - N/A   Overcast
10:36 PM 19.4 °F - 17.6 °F 93% 29.16 in 10.0 mi Calm Calm - N/A   Overcast
10:56 PM 19.4 °F - 17.6 °F 93% 29.16 in 9.0 mi Calm Calm - N/A   Overcast
11:16 PM 19.4 °F - 19.4 °F 100% 29.16 in 1.8 mi Calm Calm - N/A   Overcast
11:36 PM 19.4 °F - 19.4 °F 100% 29.16 in 2.5 mi Calm Calm - N/A   Overcast
11:56 PM 19.4 °F - 17.6 °F 93% 29.16 in 8.0 mi Calm Calm - N/A   Overcast